GW0843 Weather Reports


time (UTC)temp
F
wind
direction
speed
knots
gust
knots
rain 1hr
in
rain 24hr
in
rain mn
in
humidity
%
barometer
mb
20260504190657 53 273 3.5 5.2 0.00 0.00 0.00 49 1014.1
20260504185657 53 83 0.9 1.7 0.00 0.00 0.00 47 1013.9
20260504184655 52 251 0.0 0.9 0.00 0.00 0.00 50 1014.3
20260504183653 52 209 5.2 6.1 0.00 0.00 0.00 48 1014.7
20260504182648 52 267 3.5 5.2 0.00 0.00 0.00 50 1014.3
20260504181643 57 282 7.0 7.8 0.00 0.00 0.00 46 1014.3
20260504180639 60 236 5.2 6.1 0.00 0.00 0.00 29 1013.4
20260504175634 62 343 6.1 7.0 0.00 0.00 0.00 30 1013.1
20260504174629 60 285 4.3 6.1 0.00 0.00 0.00 29 1013.3
20260504173629 61 247 3.5 5.2 0.00 0.00 0.00 30 1013.5
20260504172628 60 269 4.3 6.1 0.00 0.00 0.00 31 1013.5
20260504171627 61 323 4.3 7.0 0.00 0.00 0.00 29 1013.4
20260504170626 60 22 7.0 9.6 0.00 0.00 0.00 29 1013.6
20260504150606 60 300 8.7 11.3 0.00 0.00 0.00 31 1013.8
20260504140557 59 293 3.5 4.3 0.00 0.00 0.00 29 1013.9
20260504130550 53 254 5.2 6.1 0.00 0.00 0.00 33 1013.6
20260504110531 34 252 0.0 0.0 0.00 0.00 0.00 65 1013.9
20260504100516 33 205 0.0 0.0 0.00 0.00 0.00 67 1014.3
20260504081454 33 272 1.7 1.7 0.00 0.00 0.00 64 1015.2
20260504080452 34 272 0.0 0.0 0.00 0.00 0.00 64 1015.1
20260504050421 40 296 0.0 0.0 0.00 0.00 0.00 50 1016.7
20260504045419 38 300 0.0 0.0 0.00 0.00 0.00 53 1016.5
20260504044419 39 190 0.9 0.9 0.00 0.00 0.00 52 1016.5
20260504043419 41 247 0.9 0.9 0.00 0.00 0.00 48 1016.6
20260504042419 40 261 0.0 0.0 0.00 0.00 0.00 50 1016.6
20260504041418 42 261 0.9 0.9 0.00 0.00 0.00 47 1016.5
20260504040412 42 277 1.7 1.7 0.00 0.00 0.00 48 1016.7
20260504035411 42 299 1.7 1.7 0.00 0.00 0.00 50 1016.8
20260504034411 45 281 0.9 0.9 0.00 0.00 0.00 45 1016.7
20260504033406 45 200 0.9 0.9 0.00 0.00 0.00 41 1016.2
20260504032405 44 200 0.9 0.9 0.00 0.00 0.00 43 1016.4
20260504031405 45 216 0.9 0.9 0.00 0.00 0.00 45 1016.5
20260504030404 46 293 1.7 1.7 0.00 0.00 0.00 43 1016.5
20260504025403 47 294 2.6 2.6 0.00 0.00 0.00 42 1016.2
20260504024402 48 270 1.7 1.7 0.00 0.00 0.00 40 1016.0
20260504023401 51 249 0.0 0.0 0.00 0.00 0.00 38 1016.2
20260504022400 52 194 0.0 0.9 0.00 0.00 0.00 35 1016.0
20260504021359 53 265 2.6 2.6 0.00 0.00 0.00 36 1016.1
20260504020359 55 210 0.9 1.7 0.00 0.00 0.00 29 1015.9
20260504015357 55 219 1.7 2.6 0.00 0.00 0.00 33 1015.9
20260504014355 57 251 1.7 1.7 0.00 0.00 0.00 32 1015.6
20260504013350 59 215 0.9 0.9 0.00 0.00 0.00 27 1015.7
20260504012350 59 340 0.0 0.0 0.00 0.00 0.00 27 1015.9
20260504011350 60 228 1.7 2.6 0.00 0.00 0.00 25 1015.7
20260504010348 61 297 2.6 4.3 0.00 0.00 0.00 22 1015.5
20260504005347 61 283 5.2 6.1 0.00 0.00 0.00 22 1015.6
20260504004343 61 241 6.1 7.8 0.00 0.00 0.00 22 1015.6
20260504003341 62 267 6.1 7.0 0.00 0.00 0.00 22 1015.6
20260504002340 61 304 3.5 4.3 0.00 0.00 0.00 22 1015.7
20260504001340 62 326 6.1 7.0 0.00 0.00 0.00 23 1015.6
20260504000340 62 303 6.1 7.8 0.00 0.00 0.00 23 1015.6
20260503235335 63 256 7.0 7.8 0.00 0.00 0.00 24 1016.1
20260503234330 62 260 5.2 7.8 0.00 0.00 0.00 26 1015.9
20260503233329 62 274 5.2 7.8 0.00 0.00 0.00 26 1016.0
20260503232329 64 264 3.5 5.2 0.00 0.00 0.00 22 1015.7
20260503231329 64 313 2.6 2.6 0.00 0.00 0.00 19 1016.0
20260503230328 64 275 4.3 6.1 0.00 0.00 0.00 20 1015.7
20260503225328 63 277 6.1 7.0 0.00 0.00 0.00 26 1015.7
20260503224327 63 338 2.6 2.6 0.00 0.00 0.00 24 1015.7
20260503223322 63 261 4.3 5.2 0.00 0.00 0.00 23 1016.1
20260503222322 63 303 4.3 4.3 0.00 0.00 0.00 22 1016.2
20260503221319 64 320 4.3 5.2 0.00 0.00 0.00 24 1016.2
20260503220317 66 352 2.6 5.2 0.00 0.00 0.00 21 1016.2
20260503215317 64 10 0.9 1.7 0.00 0.00 0.00 22 1016.6
20260503214312 64 276 7.8 8.7 0.00 0.00 0.00 21 1016.5
20260503213307 63 4 4.3 5.2 0.00 0.00 0.00 23 1016.7
20260503212301 62 276 6.1 7.8 0.00 0.00 0.00 25 1016.7
20260503211301 63 295 6.1 7.0 0.00 0.00 0.00 26 1016.8
20260503210259 63 227 4.3 7.8 0.00 0.00 0.00 28 1017.3
20260503205256 63 323 3.5 4.3 0.00 0.00 0.00 26 1017.6
20260503204256 62 338 5.2 7.0 0.00 0.00 0.00 28 1018.0
20260503203251 63 275 9.6 13.0 0.00 0.00 0.00 25 1018.1
20260503202246 63 226 1.7 1.7 0.00 0.00 0.00 24 1018.0
20260503201247 64 288 6.1 7.0 0.00 0.00 0.00 23 1017.6
20260503200245 63 342 4.3 6.1 0.00 0.00 0.00 24 1017.7
20260503195245 63 312 1.7 2.6 0.00 0.00 0.00 24 1018.0
20260503194244 62 256 4.3 5.2 0.00 0.00 0.00 26 1018.2
20260503193243 62 321 5.2 6.1 0.00 0.00 0.00 24 1018.3
20260503192239 62 273 5.2 6.1 0.00 0.00 0.00 24 1018.4
20260503191234 62 234 0.9 2.6 0.00 0.00 0.00 24 1018.6